| time (UTC) | temp F | wind direction | speed MPH | gust MPH | rain 1hr in | rain 24hr in | rain mn in | humidity % | barometer mb |
| 20260831062027 | 54 | 5 | 0.0 | 0.0 | 0.00 | 0.00 | 0.00 | 93 | 1014.8 |
| 20260831061925 | 54 | 5 | 0.0 | 0.0 | 0.00 | 0.00 | 0.00 | 93 | 1014.9 |
| 20260831061528 | 54 | 5 | 0.0 | 0.0 | 0.00 | 0.00 | 0.00 | 92 | 1014.9 |
| 20260831061432 | 54 | 5 | 0.0 | 0.0 | 0.00 | 0.00 | 0.00 | 92 | 1015.0 |
| 20260831061019 | 54 | 5 | 0.0 | 0.0 | 0.00 | 0.00 | 0.00 | 92 | 1015.0 |
| 20260831060920 | 54 | 5 | 0.0 | 0.0 | 0.00 | 0.00 | 0.00 | 92 | 1015.0 |
| 20260831060527 | 54 | 5 | 0.0 | 0.0 | 0.00 | 0.00 | 0.00 | 92 | 1015.0 |
| 20260831060428 | 54 | 5 | 0.0 | 0.0 | 0.00 | 0.00 | 0.00 | 92 | 1015.0 |
| 20260831060025 | 54 | 5 | 0.0 | 0.0 | 0.00 | 0.00 | 0.00 | 92 | 1015.0 |
| 20260831055926 | 54 | 5 | 0.0 | 0.0 | 0.00 | 0.00 | 0.00 | 92 | 1015.0 |
| 20260831055532 | 54 | 5 | 0.0 | 0.0 | 0.00 | 0.00 | 0.00 | 91 | 1015.0 |
| 20260831055414 | 54 | 5 | 0.0 | 0.0 | 0.00 | 0.00 | 0.00 | 91 | 1015.1 |
| 20260831055021 | 54 | 5 | 0.0 | 0.0 | 0.00 | 0.00 | 0.00 | 91 | 1015.1 |
| 20260831054922 | 54 | 5 | 0.0 | 0.0 | 0.00 | 0.00 | 0.00 | 91 | 1015.1 |
| 20260831054526 | 54 | 5 | 0.0 | 0.0 | 0.00 | 0.00 | 0.00 | 91 | 1015.1 |
| 20260831054426 | 54 | 5 | 0.0 | 0.0 | 0.00 | 0.00 | 0.00 | 91 | 1015.2 |
| 20260831054032 | 54 | 5 | 0.0 | 0.0 | 0.00 | 0.00 | 0.00 | 91 | 1015.3 |
| 20260831053914 | 54 | 5 | 0.0 | 0.0 | 0.00 | 0.00 | 0.00 | 91 | 1015.3 |
| 20260831053519 | 54 | 5 | 0.0 | 0.0 | 0.00 | 0.00 | 0.00 | 91 | 1015.3 |
| 20260831053418 | 54 | 5 | 0.0 | 0.0 | 0.00 | 0.00 | 0.00 | 91 | 1015.4 |
| 20260831053022 | 55 | 5 | 0.0 | 0.0 | 0.00 | 0.00 | 0.00 | 91 | 1015.4 |
| 20260831052923 | 55 | 5 | 0.0 | 0.0 | 0.00 | 0.00 | 0.00 | 91 | 1015.3 |
| 20260831052525 | 55 | 5 | 0.0 | 0.0 | 0.00 | 0.00 | 0.00 | 91 | 1015.3 |
| 20260831052430 | 55 | 5 | 0.0 | 0.0 | 0.00 | 0.00 | 0.00 | 91 | 1015.3 |
| 20260831052033 | 55 | 5 | 0.0 | 0.0 | 0.00 | 0.00 | 0.00 | 90 | 1015.3 |
| 20260831051919 | 55 | 5 | 0.0 | 0.0 | 0.00 | 0.00 | 0.00 | 90 | 1015.3 |
| 20260831051521 | 55 | 5 | 0.0 | 0.0 | 0.00 | 0.00 | 0.00 | 90 | 1015.3 |
| 20260831051423 | 55 | 5 | 0.0 | 0.0 | 0.00 | 0.00 | 0.00 | 90 | 1015.3 |
| 20260831051023 | 55 | 5 | 0.0 | 0.0 | 0.00 | 0.00 | 0.00 | 90 | 1015.3 |
| 20260831050924 | 55 | 5 | 0.0 | 0.0 | 0.00 | 0.00 | 0.00 | 90 | 1015.3 |
| 20260831050531 | 55 | 5 | 0.0 | 0.0 | 0.00 | 0.00 | 0.00 | 90 | 1015.2 |
| 20260831050430 | 55 | 5 | 0.0 | 0.0 | 0.00 | 0.00 | 0.00 | 90 | 1015.3 |
| 20260831050027 | 56 | 5 | 0.0 | 0.0 | 0.00 | 0.00 | 0.00 | 90 | 1015.3 |
| 20260831045929 | 56 | 5 | 0.0 | 0.0 | 0.00 | 0.00 | 0.00 | 90 | 1015.3 |
| 20260831045516 | 56 | 5 | 0.0 | 0.0 | 0.00 | 0.00 | 0.00 | 90 | 1015.3 |
| 20260831045417 | 56 | 5 | 0.0 | 0.0 | 0.00 | 0.00 | 0.00 | 90 | 1015.3 |
| 20260831045023 | 56 | 5 | 0.0 | 0.0 | 0.00 | 0.00 | 0.00 | 89 | 1015.4 |
| 20260831044925 | 56 | 5 | 0.0 | 0.0 | 0.00 | 0.00 | 0.00 | 89 | 1015.4 |
| 20260831044532 | 56 | 5 | 0.0 | 0.0 | 0.00 | 0.00 | 0.00 | 89 | 1015.4 |
| 20260831044413 | 56 | 5 | 0.0 | 0.0 | 0.00 | 0.00 | 0.00 | 89 | 1015.5 |
| 20260831044019 | 56 | 5 | 0.0 | 0.0 | 0.00 | 0.00 | 0.00 | 89 | 1015.4 |
| 20260831043921 | 56 | 5 | 0.0 | 0.0 | 0.00 | 0.00 | 0.00 | 89 | 1015.4 |
| 20260831043527 | 57 | 5 | 0.0 | 0.0 | 0.00 | 0.00 | 0.00 | 89 | 1015.4 |
| 20260831043428 | 57 | 5 | 0.0 | 0.0 | 0.00 | 0.00 | 0.00 | 89 | 1015.4 |
| 20260831043014 | 57 | 5 | 0.0 | 0.0 | 0.00 | 0.00 | 0.00 | 88 | 1015.5 |
| 20260831042915 | 57 | 5 | 0.0 | 0.0 | 0.00 | 0.00 | 0.00 | 88 | 1015.5 |
| 20260831042520 | 57 | 5 | 0.0 | 0.0 | 0.00 | 0.00 | 0.00 | 88 | 1015.6 |
| 20260831042422 | 57 | 5 | 0.0 | 0.0 | 0.00 | 0.00 | 0.00 | 88 | 1015.6 |
| 20260831042027 | 57 | 5 | 0.0 | 0.0 | 0.00 | 0.00 | 0.00 | 87 | 1015.7 |
| 20260831041928 | 57 | 5 | 0.0 | 0.0 | 0.00 | 0.00 | 0.00 | 87 | 1015.7 |
| 20260831041514 | 58 | 5 | 0.0 | 0.0 | 0.00 | 0.00 | 0.00 | 87 | 1015.7 |
| 20260831041416 | 58 | 5 | 0.0 | 0.0 | 0.00 | 0.00 | 0.00 | 87 | 1015.7 |
| 20260831041022 | 58 | 5 | 0.0 | 0.0 | 0.00 | 0.00 | 0.00 | 87 | 1015.7 |
| 20260831040923 | 58 | 5 | 0.0 | 0.0 | 0.00 | 0.00 | 0.00 | 87 | 1015.8 |
| 20260831040529 | 58 | 5 | 0.0 | 0.0 | 0.00 | 0.00 | 0.00 | 87 | 1015.7 |
| 20260831040429 | 58 | 5 | 0.0 | 0.0 | 0.00 | 0.00 | 0.00 | 87 | 1015.7 |
| 20260831040020 | 58 | 5 | 0.0 | 1.0 | 0.00 | 0.00 | 0.00 | 86 | 1015.7 |
| 20260831035926 | 58 | 5 | 0.0 | 1.0 | 0.00 | 0.00 | 0.00 | 86 | 1015.7 |
| 20260831035526 | 59 | 5 | 0.0 | 2.0 | 0.00 | 0.00 | 0.00 | 86 | 1015.7 |
| 20260831035432 | 59 | 5 | 0.0 | 2.0 | 0.00 | 0.00 | 0.00 | 86 | 1015.7 |
| 20260831035033 | 59 | 5 | 0.0 | 2.0 | 0.00 | 0.00 | 0.00 | 86 | 1015.7 |
| 20260831034916 | 59 | 5 | 0.0 | 2.0 | 0.00 | 0.00 | 0.00 | 86 | 1015.8 |
| 20260831034515 | 59 | 16 | 0.0 | 1.0 | 0.00 | 0.00 | 0.00 | 86 | 1015.8 |
| 20260831034416 | 59 | 17 | 0.0 | 1.0 | 0.00 | 0.00 | 0.00 | 86 | 1015.8 |
| 20260831034020 | 59 | 15 | 0.0 | 1.0 | 0.00 | 0.00 | 0.00 | 86 | 1015.8 |
| 20260831033921 | 59 | 84 | 0.0 | 1.0 | 0.00 | 0.00 | 0.00 | 86 | 1015.8 |
| 20260831033526 | 59 | 199 | 0.0 | 2.0 | 0.00 | 0.00 | 0.00 | 86 | 1015.7 |
| 20260831033424 | 59 | 197 | 0.0 | 2.0 | 0.00 | 0.00 | 0.00 | 86 | 1015.7 |
| 20260831033027 | 59 | 150 | 1.0 | 4.0 | 0.00 | 0.00 | 0.00 | 86 | 1015.8 |
| 20260831032927 | 59 | 36 | 0.0 | 6.0 | 0.00 | 0.00 | 0.00 | 86 | 1015.6 |
| 20260831032532 | 59 | 222 | 0.0 | 6.0 | 0.00 | 0.00 | 0.00 | 86 | 1015.8 |
| 20260831032415 | 59 | 358 | 1.0 | 6.0 | 0.00 | 0.00 | 0.00 | 86 | 1015.7 |
| 20260831032021 | 59 | 144 | 1.0 | 6.0 | 0.00 | 0.00 | 0.00 | 86 | 1015.7 |
| 20260831031921 | 59 | 292 | 0.0 | 6.0 | 0.00 | 0.00 | 0.00 | 85 | 1015.7 |
| 20260831031525 | 59 | 223 | 1.0 | 6.0 | 0.00 | 0.00 | 0.00 | 85 | 1015.7 |
| 20260831031427 | 59 | 15 | 1.0 | 6.0 | 0.00 | 0.00 | 0.00 | 85 | 1015.7 |
| 20260831031030 | 59 | 278 | 1.0 | 2.0 | 0.00 | 0.00 | 0.00 | 85 | 1015.9 |
| 20260831030931 | 59 | 335 | 0.0 | 2.0 | 0.00 | 0.00 | 0.00 | 85 | 1015.8 |
| 20260831030519 | 60 | 140 | 0.0 | 3.0 | 0.00 | 0.00 | 0.00 | 84 | 1015.8 |
| 20260831030419 | 60 | 300 | 1.0 | 3.0 | 0.00 | 0.00 | 0.00 | 84 | 1015.9 |
| 20260831030030 | 60 | 300 | 1.0 | 3.0 | 0.00 | 0.00 | 0.00 | 84 | 1015.9 |
| 20260831025929 | 60 | 154 | 1.0 | 3.0 | 0.00 | 0.00 | 0.00 | 84 | 1016.0 |
| 20260831025532 | 60 | 243 | 0.0 | 3.0 | 0.00 | 0.00 | 0.00 | 84 | 1016.0 |
| 20260831025412 | 60 | 141 | 1.0 | 3.0 | 0.00 | 0.00 | 0.00 | 84 | 1016.0 |
| 20260831025020 | 60 | 338 | 0.0 | 3.0 | 0.00 | 0.00 | 0.00 | 83 | 1015.9 |
| 20260831024921 | 60 | 90 | 0.0 | 3.0 | 0.00 | 0.00 | 0.00 | 83 | 1016.0 |
| 20260831024527 | 60 | 171 | 1.0 | 4.0 | 0.00 | 0.00 | 0.00 | 83 | 1015.9 |
| 20260831024428 | 60 | 44 | 1.0 | 4.0 | 0.00 | 0.00 | 0.00 | 83 | 1015.9 |
| 20260831024028 | 60 | 244 | 1.0 | 4.0 | 0.00 | 0.00 | 0.00 | 82 | 1016.0 |
| 20260831023931 | 60 | 305 | 1.0 | 4.0 | 0.00 | 0.00 | 0.00 | 82 | 1015.9 |
| 20260831023530 | 60 | 284 | 0.0 | 5.0 | 0.00 | 0.00 | 0.00 | 82 | 1016.0 |
| 20260831023414 | 60 | 155 | 0.0 | 5.0 | 0.00 | 0.00 | 0.00 | 82 | 1015.9 |
| 20260831023015 | 61 | 264 | 0.0 | 5.0 | 0.00 | 0.00 | 0.00 | 82 | 1016.0 |
| 20260831022920 | 61 | 43 | 1.0 | 5.0 | 0.00 | 0.00 | 0.00 | 82 | 1016.0 |
| 20260831022525 | 61 | 47 | 1.0 | 4.0 | 0.00 | 0.00 | 0.00 | 81 | 1016.1 |
| 20260831022426 | 61 | 290 | 1.0 | 4.0 | 0.00 | 0.00 | 0.00 | 81 | 1016.1 |
| 20260831022027 | 61 | 281 | 1.0 | 3.0 | 0.00 | 0.00 | 0.00 | 81 | 1016.2 |
| 20260831021926 | 61 | 265 | 1.0 | 3.0 | 0.00 | 0.00 | 0.00 | 81 | 1016.2 |
| 20260831021530 | 61 | 150 | 1.0 | 3.0 | 0.00 | 0.00 | 0.00 | 81 | 1016.2 |
| 20260831021431 | 61 | 148 | 1.0 | 3.0 | 0.00 | 0.00 | 0.00 | 81 | 1016.2 |
| 20260831021032 | 61 | 220 | 0.0 | 2.0 | 0.00 | 0.00 | 0.00 | 81 | 1016.2 |
| 20260831020915 | 61 | 298 | 0.0 | 2.0 | 0.00 | 0.00 | 0.00 | 81 | 1016.3 |
| 20260831020522 | 62 | 302 | 1.0 | 3.0 | 0.00 | 0.00 | 0.00 | 81 | 1016.2 |
| 20260831020422 | 62 | 276 | 1.0 | 3.0 | 0.00 | 0.00 | 0.00 | 81 | 1016.3 |
| 20260831020014 | 62 | 266 | 1.0 | 3.0 | 0.00 | 0.00 | 0.00 | 81 | 1016.4 |
| 20260831015915 | 62 | 285 | 0.0 | 3.0 | 0.00 | 0.00 | 0.00 | 81 | 1016.3 |
| 20260831015518 | 62 | 218 | 0.0 | 4.0 | 0.00 | 0.00 | 0.00 | 80 | 1016.3 |
| 20260831015419 | 62 | 17 | 1.0 | 5.0 | 0.00 | 0.00 | 0.00 | 80 | 1016.3 |
| 20260831015022 | 62 | 205 | 0.0 | 5.0 | 0.00 | 0.00 | 0.00 | 80 | 1016.4 |
| 20260831014922 | 62 | 205 | 0.0 | 5.0 | 0.00 | 0.00 | 0.00 | 80 | 1016.4 |
| 20260831014527 | 62 | 228 | 1.0 | 5.0 | 0.00 | 0.00 | 0.00 | 80 | 1016.4 |
| 20260831014426 | 62 | 157 | 1.0 | 5.0 | 0.00 | 0.00 | 0.00 | 80 | 1016.4 |
| 20260831014029 | 63 | 32 | 1.0 | 5.0 | 0.00 | 0.00 | 0.00 | 79 | 1016.5 |
| 20260831013928 | 63 | 23 | 1.0 | 5.0 | 0.00 | 0.00 | 0.00 | 79 | 1016.4 |
| 20260831013531 | 63 | 300 | 1.0 | 4.0 | 0.00 | 0.00 | 0.00 | 79 | 1016.6 |
| 20260831013430 | 63 | 90 | 1.0 | 5.0 | 0.00 | 0.00 | 0.00 | 78 | 1016.6 |
| 20260831013014 | 63 | 240 | 1.0 | 5.0 | 0.00 | 0.00 | 0.00 | 78 | 1016.6 |
| 20260831012934 | 63 | 274 | 1.0 | 5.0 | 0.00 | 0.00 | 0.00 | 78 | 1016.6 |
| 20260831012530 | 64 | 298 | 1.0 | 5.0 | 0.00 | 0.00 | 0.00 | 77 | 1016.7 |
| 20260831012433 | 64 | 94 | 0.0 | 5.0 | 0.00 | 0.00 | 0.00 | 77 | 1016.6 |
| 20260831012030 | 64 | 203 | 1.0 | 5.0 | 0.00 | 0.00 | 0.00 | 76 | 1016.8 |
| 20260831011913 | 64 | 254 | 1.0 | 4.0 | 0.00 | 0.00 | 0.00 | 76 | 1016.7 |
| 20260831011514 | 64 | 79 | 1.0 | 8.0 | 0.00 | 0.00 | 0.00 | 76 | 1016.8 |
| 20260831011413 | 64 | 260 | 1.0 | 8.0 | 0.00 | 0.00 | 0.00 | 76 | 1016.7 |
| 20260831011017 | 65 | 195 | 3.0 | 9.0 | 0.00 | 0.00 | 0.00 | 75 | 1016.9 |
| 20260831010918 | 65 | 136 | 3.0 | 9.0 | 0.00 | 0.00 | 0.00 | 75 | 1016.8 |
| 20260831010525 | 65 | 170 | 3.0 | 9.0 | 0.00 | 0.00 | 0.00 | 74 | 1016.9 |
| 20260831010423 | 65 | 229 | 2.0 | 7.0 | 0.00 | 0.00 | 0.00 | 75 | 1016.8 |
| 20260831010015 | 65 | 225 | 2.0 | 5.0 | 0.00 | 0.00 | 0.00 | 75 | 1017.0 |
| 20260831005914 | 65 | 281 | 1.0 | 5.0 | 0.00 | 0.00 | 0.00 | 75 | 1017.0 |
| 20260831005516 | 65 | 300 | 1.0 | 7.0 | 0.00 | 0.00 | 0.00 | 75 | 1017.0 |
| 20260831005415 | 65 | 326 | 2.0 | 7.0 | 0.00 | 0.00 | 0.00 | 75 | 1017.1 |
| 20260831005020 | 66 | 72 | 2.0 | 7.0 | 0.00 | 0.00 | 0.00 | 74 | 1017.2 |
| 20260831004922 | 66 | 251 | 2.0 | 7.0 | 0.00 | 0.00 | 0.00 | 75 | 1017.2 |
| 20260831004525 | 66 | 53 | 1.0 | 5.0 | 0.00 | 0.00 | 0.00 | 74 | 1017.2 |
| 20260831004426 | 66 | 159 | 1.0 | 5.0 | 0.00 | 0.00 | 0.00 | 75 | 1017.2 |
| 20260831004029 | 66 | 81 | 1.0 | 5.0 | 0.00 | 0.00 | 0.00 | 75 | 1017.3 |
| 20260831003930 | 66 | 4 | 1.0 | 5.0 | 0.00 | 0.00 | 0.00 | 74 | 1017.3 |
| 20260831003534 | 66 | 36 | 1.0 | 5.0 | 0.00 | 0.00 | 0.00 | 74 | 1017.3 |
| 20260831003414 | 66 | 307 | 1.0 | 6.0 | 0.00 | 0.00 | 0.00 | 74 | 1017.3 |
| 20260831003017 | 67 | 297 | 1.0 | 6.0 | 0.00 | 0.00 | 0.00 | 73 | 1017.3 |
| 20260831002916 | 67 | 325 | 1.0 | 6.0 | 0.00 | 0.00 | 0.00 | 73 | 1017.3 |
| 20260831002520 | 67 | 93 | 2.0 | 6.0 | 0.00 | 0.00 | 0.00 | 72 | 1017.2 |
| 20260831002421 | 67 | 268 | 1.0 | 3.0 | 0.00 | 0.00 | 0.00 | 72 | 1017.3 |
| 20260831002024 | 67 | 135 | 1.0 | 5.0 | 0.00 | 0.00 | 0.00 | 71 | 1017.2 |
| 20260831001929 | 68 | 221 | 1.0 | 5.0 | 0.00 | 0.00 | 0.00 | 72 | 1017.2 |
| 20260831001529 | 68 | 264 | 1.0 | 5.0 | 0.00 | 0.00 | 0.00 | 71 | 1017.3 |
| 20260831001433 | 68 | 164 | 1.0 | 5.0 | 0.00 | 0.00 | 0.00 | 72 | 1017.3 |
| 20260831001033 | 67 | 288 | 0.0 | 5.0 | 0.00 | 0.00 | 0.00 | 72 | 1017.4 |
| 20260831000919 | 67 | 292 | 1.0 | 5.0 | 0.00 | 0.00 | 0.00 | 72 | 1017.4 |
| 20260831000522 | 67 | 257 | 2.0 | 6.0 | 0.00 | 0.00 | 0.00 | 72 | 1017.4 |
| 20260831000420 | 67 | 117 | 3.0 | 6.0 | 0.00 | 0.00 | 0.00 | 71 | 1017.4 |
| 20260831000031 | 67 | 309 | 2.0 | 6.0 | 0.00 | 0.00 | 0.00 | 72 | 1017.4 |
| 20260830235930 | 67 | 98 | 2.0 | 6.0 | 0.00 | 0.00 | 0.00 | 72 | 1017.5 |
| 20260830235517 | 67 | 297 | 2.0 | 6.0 | 0.00 | 0.00 | 0.00 | 72 | 1017.6 |
| 20260830235418 | 67 | 293 | 2.0 | 12.0 | 0.00 | 0.00 | 0.00 | 71 | 1017.5 |
| 20260830235022 | 68 | 299 | 2.0 | 12.0 | 0.00 | 0.00 | 0.00 | 71 | 1017.6 |
| 20260830234918 | 68 | 215 | 2.0 | 12.0 | 0.00 | 0.00 | 0.00 | 71 | 1017.6 |
| 20260830234521 | 68 | 237 | 1.0 | 4.0 | 0.00 | 0.00 | 0.00 | 70 | 1017.7 |
| 20260830234421 | 68 | 8 | 2.0 | 4.0 | 0.00 | 0.00 | 0.00 | 69 | 1017.7 |
| 20260830234024 | 68 | 245 | 1.0 | 4.0 | 0.00 | 0.00 | 0.00 | 71 | 1017.7 |
| 20260830233925 | 68 | 232 | 1.0 | 6.0 | 0.00 | 0.00 | 0.00 | 71 | 1017.7 |
| 20260830233531 | 68 | 303 | 1.0 | 6.0 | 0.00 | 0.00 | 0.00 | 71 | 1017.7 |
| 20260830233412 | 68 | 255 | 1.0 | 6.0 | 0.00 | 0.00 | 0.00 | 70 | 1017.8 |
| 20260830233016 | 68 | 216 | 2.0 | 5.0 | 0.00 | 0.00 | 0.00 | 71 | 1017.9 |
| 20260830232916 | 68 | 319 | 2.0 | 6.0 | 0.00 | 0.00 | 0.00 | 70 | 1017.9 |
| 20260830232520 | 67 | 300 | 2.0 | 6.0 | 0.00 | 0.00 | 0.00 | 70 | 1017.9 |
| 20260830232420 | 67 | 39 | 2.0 | 6.0 | 0.00 | 0.00 | 0.00 | 70 | 1018.0 |
| 20260830232023 | 67 | 113 | 3.0 | 7.0 | 0.00 | 0.00 | 0.00 | 71 | 1018.0 |
| 20260830231924 | 67 | 199 | 2.0 | 7.0 | 0.00 | 0.00 | 0.00 | 70 | 1018.0 |
| 20260830231530 | 67 | 228 | 3.0 | 7.0 | 0.00 | 0.00 | 0.00 | 70 | 1018.1 |
| 20260830231412 | 67 | 202 | 2.0 | 7.0 | 0.00 | 0.00 | 0.00 | 69 | 1018.2 |
| 20260830231018 | 68 | 321 | 3.0 | 7.0 | 0.00 | 0.00 | 0.00 | 69 | 1018.1 |
| 20260830230918 | 68 | 64 | 2.0 | 7.0 | 0.00 | 0.00 | 0.00 | 69 | 1018.1 |
| 20260830230522 | 68 | 105 | 1.0 | 7.0 | 0.00 | 0.00 | 0.00 | 69 | 1018.2 |
| 20260830230422 | 68 | 328 | 2.0 | 7.0 | 0.00 | 0.00 | 0.00 | 70 | 1018.2 |
| 20260830230016 | 68 | 250 | 2.0 | 6.0 | 0.00 | 0.00 | 0.00 | 69 | 1018.3 |
| 20260830225922 | 68 | 163 | 2.0 | 6.0 | 0.00 | 0.00 | 0.00 | 69 | 1018.3 |
| 20260830225523 | 68 | 284 | 2.0 | 4.0 | 0.00 | 0.00 | 0.00 | 70 | 1018.2 |
| 20260830225429 | 68 | 329 | 1.0 | 4.0 | 0.00 | 0.00 | 0.00 | 70 | 1018.3 |
| 20260830225027 | 68 | 356 | 1.0 | 4.0 | 0.00 | 0.00 | 0.00 | 70 | 1018.3 |
| 20260830224926 | 68 | 90 | 1.0 | 5.0 | 0.00 | 0.00 | 0.00 | 69 | 1018.3 |
| 20260830224529 | 69 | 259 | 2.0 | 5.0 | 0.00 | 0.00 | 0.00 | 69 | 1018.4 |
| 20260830224429 | 69 | 243 | 2.0 | 5.0 | 0.00 | 0.00 | 0.00 | 68 | 1018.3 |
| 20260830224032 | 69 | 39 | 2.0 | 6.0 | 0.00 | 0.00 | 0.00 | 68 | 1018.4 |
| 20260830223913 | 69 | 55 | 1.0 | 6.0 | 0.00 | 0.00 | 0.00 | 70 | 1018.4 |
| 20260830223519 | 69 | 56 | 2.0 | 6.0 | 0.00 | 0.00 | 0.00 | 68 | 1018.4 |
| 20260830223418 | 69 | 36 | 2.0 | 6.0 | 0.00 | 0.00 | 0.00 | 68 | 1018.5 |
| 20260830223023 | 69 | 291 | 1.0 | 4.0 | 0.00 | 0.00 | 0.00 | 67 | 1018.5 |
| 20260830222925 | 69 | 51 | 2.0 | 4.0 | 0.00 | 0.00 | 0.00 | 67 | 1018.6 |
| 20260830222530 | 70 | 183 | 1.0 | 3.0 | 0.00 | 0.00 | 0.00 | 67 | 1018.6 |
| 20260830222429 | 70 | 280 | 1.0 | 3.0 | 0.00 | 0.00 | 0.00 | 68 | 1018.7 |
| 20260830222032 | 70 | 256 | 1.0 | 4.0 | 0.00 | 0.00 | 0.00 | 67 | 1018.7 |
| 20260830221931 | 70 | 56 | 1.0 | 4.0 | 0.00 | 0.00 | 0.00 | 68 | 1018.7 |
| 20260830221515 | 70 | 41 | 2.0 | 5.0 | 0.00 | 0.00 | 0.00 | 67 | 1018.8 |
| 20260830221416 | 70 | 303 | 1.0 | 5.0 | 0.00 | 0.00 | 0.00 | 68 | 1018.7 |
| 20260830221022 | 69 | 242 | 1.0 | 5.0 | 0.00 | 0.00 | 0.00 | 69 | 1018.8 |
| 20260830220922 | 69 | 317 | 1.0 | 5.0 | 0.00 | 0.00 | 0.00 | 69 | 1018.8 |
| 20260830220526 | 69 | 321 | 2.0 | 6.0 | 0.00 | 0.00 | 0.00 | 68 | 1018.9 |
| 20260830220426 | 69 | 57 | 2.0 | 6.0 | 0.00 | 0.00 | 0.00 | 69 | 1018.8 |
| 20260830220019 | 69 | 276 | 1.0 | 7.0 | 0.00 | 0.00 | 0.00 | 69 | 1018.9 |
| 20260830215921 | 69 | 107 | 1.0 | 7.0 | 0.00 | 0.00 | 0.00 | 68 | 1018.8 |
| 20260830215528 | 69 | 49 | 2.0 | 7.0 | 0.00 | 0.00 | 0.00 | 67 | 1019.0 |
| 20260830215431 | 69 | 64 | 3.0 | 7.0 | 0.00 | 0.00 | 0.00 | 67 | 1019.0 |
| 20260830215014 | 69 | 272 | 1.0 | 6.0 | 0.00 | 0.00 | 0.00 | 68 | 1019.1 |
| 20260830214935 | 69 | 86 | 1.0 | 6.0 | 0.00 | 0.00 | 0.00 | 68 | 1019.1 |
| 20260830214532 | 70 | 47 | 2.0 | 6.0 | 0.00 | 0.00 | 0.00 | 67 | 1019.1 |
| 20260830214416 | 70 | 101 | 1.0 | 5.0 | 0.00 | 0.00 | 0.00 | 67 | 1019.1 |
| 20260830214015 | 70 | 299 | 2.0 | 5.0 | 0.00 | 0.00 | 0.00 | 67 | 1019.3 |
| 20260830213921 | 70 | 214 | 1.0 | 2.0 | 0.00 | 0.00 | 0.00 | 68 | 1019.3 |
| 20260830213524 | 70 | 109 | 1.0 | 3.0 | 0.00 | 0.00 | 0.00 | 68 | 1019.1 |
| 20260830213422 | 70 | 294 | 1.0 | 5.0 | 0.00 | 0.00 | 0.00 | 68 | 1019.3 |
| 20260830213025 | 69 | 304 | 1.0 | 5.0 | 0.00 | 0.00 | 0.00 | 68 | 1019.4 |
| 20260830212924 | 69 | 221 | 1.0 | 5.0 | 0.00 | 0.00 | 0.00 | 68 | 1019.4 |
| 20260830212525 | 69 | 224 | 1.0 | 5.0 | 0.00 | 0.00 | 0.00 | 69 | 1019.4 |
| 20260830212424 | 69 | 62 | 2.0 | 7.0 | 0.00 | 0.00 | 0.00 | 68 | 1019.4 |
| 20260830212029 | 69 | 231 | 1.0 | 7.0 | 0.00 | 0.00 | 0.00 | 67 | 1019.5 |
| 20260830211930 | 69 | 58 | 1.0 | 7.0 | 0.00 | 0.00 | 0.00 | 67 | 1019.4 |
| 20260830211532 | 69 | 282 | 1.0 | 7.0 | 0.00 | 0.00 | 0.00 | 71 | 1019.5 |
| 20260830211413 | 69 | 105 | 1.0 | 4.0 | 0.00 | 0.00 | 0.00 | 69 | 1019.4 |
| 20260830211018 | 68 | 59 | 2.0 | 4.0 | 0.00 | 0.00 | 0.00 | 69 | 1019.4 |
| 20260830210918 | 68 | 262 | 1.0 | 4.0 | 0.00 | 0.00 | 0.00 | 69 | 1019.5 |
| 20260830210523 | 68 | 264 | 2.0 | 4.0 | 0.00 | 0.00 | 0.00 | 71 | 1019.5 |
| 20260830210424 | 68 | 262 | 2.0 | 4.0 | 0.00 | 0.00 | 0.00 | 70 | 1019.5 |
| 20260830210018 | 68 | 303 | 2.0 | 7.0 | 0.00 | 0.00 | 0.00 | 72 | 1019.5 |
| 20260830205920 | 67 | 333 | 2.0 | 7.0 | 0.00 | 0.00 | 0.00 | 71 | 1019.5 |
| 20260830205525 | 67 | 165 | 3.0 | 7.0 | 0.00 | 0.00 | 0.00 | 72 | 1019.5 |
| 20260830205427 | 67 | 321 | 4.0 | 7.0 | 0.00 | 0.00 | 0.00 | 72 | 1019.6 |
| 20260830205032 | 67 | 300 | 2.0 | 7.0 | 0.00 | 0.00 | 0.00 | 71 | 1019.6 |
| 20260830204913 | 67 | 271 | 2.0 | 7.0 | 0.00 | 0.00 | 0.00 | 72 | 1019.7 |
| 20260830204516 | 67 | 283 | 2.0 | 6.0 | 0.00 | 0.00 | 0.00 | 72 | 1019.6 |
| 20260830204416 | 67 | 172 | 3.0 | 6.0 | 0.00 | 0.00 | 0.00 | 72 | 1019.6 |
| 20260830204019 | 67 | 286 | 3.0 | 7.0 | 0.00 | 0.00 | 0.00 | 73 | 1019.7 |
| 20260830203918 | 67 | 223 | 2.0 | 7.0 | 0.00 | 0.00 | 0.00 | 72 | 1019.7 |
| 20260830203523 | 67 | 291 | 2.0 | 7.0 | 0.00 | 0.00 | 0.00 | 73 | 1019.7 |
| 20260830203424 | 67 | 293 | 2.0 | 7.0 | 0.00 | 0.00 | 0.00 | 74 | 1019.7 |
| 20260830203020 | 66 | 211 | 3.0 | 6.0 | 0.00 | 0.00 | 0.00 | 73 | 1019.7 |
| 20260830202925 | 66 | 263 | 2.0 | 6.0 | 0.00 | 0.00 | 0.00 | 73 | 1019.8 |
| 20260830202528 | 66 | 293 | 2.0 | 6.0 | 0.00 | 0.00 | 0.00 | 73 | 1019.8 |
| 20260830202414 | 67 | 77 | 3.0 | 6.0 | 0.00 | 0.00 | 0.00 | 71 | 1019.9 |
| 20260830202014 | 68 | 151 | 2.0 | 6.0 | 0.00 | 0.00 | 0.00 | 71 | 1019.9 |
| 20260830201918 | 67 | 83 | 1.0 | 6.0 | 0.00 | 0.00 | 0.00 | 73 | 1019.9 |
| 20260830201517 | 67 | 268 | 1.0 | 6.0 | 0.00 | 0.00 | 0.00 | 73 | 1019.8 |
| 20260830201419 | 67 | 304 | 1.0 | 6.0 | 0.00 | 0.00 | 0.00 | 74 | 1019.8 |
| 20260830201021 | 67 | 248 | 2.0 | 6.0 | 0.00 | 0.00 | 0.00 | 72 | 1019.9 |
| 20260830200923 | 67 | 311 | 2.0 | 7.0 | 0.00 | 0.00 | 0.00 | 71 | 1019.9 |
| 20260830200524 | 66 | 45 | 1.0 | 7.0 | 0.00 | 0.00 | 0.00 | 73 | 1020.1 |
| 20260830200423 | 66 | 74 | 2.0 | 7.0 | 0.00 | 0.00 | 0.00 | 73 | 1020.1 |
| 20260830200018 | 66 | 254 | 3.0 | 7.0 | 0.00 | 0.00 | 0.00 | 72 | 1020.1 |
| 20260830195920 | 67 | 17 | 3.0 | 7.0 | 0.00 | 0.00 | 0.00 | 70 | 1020.1 |
| 20260830195524 | 66 | 71 | 2.0 | 7.0 | 0.00 | 0.00 | 0.00 | 70 | 1020.2 |
| 20260830195424 | 66 | 170 | 2.0 | 7.0 | 0.00 | 0.00 | 0.00 | 70 | 1020.1 |
| 20260830195027 | 66 | 141 | 1.0 | 5.0 | 0.00 | 0.00 | 0.00 | 71 | 1020.1 |
| 20260830194928 | 66 | 272 | 1.0 | 5.0 | 0.00 | 0.00 | 0.00 | 71 | 1020.1 |
| 20260830194528 | 67 | 18 | 2.0 | 5.0 | 0.00 | 0.00 | 0.00 | 69 | 1020.1 |
| 20260830194430 | 67 | 165 | 2.0 | 6.0 | 0.00 | 0.00 | 0.00 | 68 | 1020.1 |
| 20260830194032 | 67 | 226 | 2.0 | 6.0 | 0.00 | 0.00 | 0.00 | 69 | 1020.2 |
| 20260830193914 | 67 | 142 | 1.0 | 6.0 | 0.00 | 0.00 | 0.00 | 68 | 1020.2 |
| 20260830193521 | 67 | 43 | 1.0 | 4.0 | 0.00 | 0.00 | 0.00 | 68 | 1020.2 |
| 20260830193418 | 67 | 258 | 2.0 | 4.0 | 0.00 | 0.00 | 0.00 | 67 | 1020.2 |
| 20260830193023 | 67 | 44 | 2.0 | 4.0 | 0.00 | 0.00 | 0.00 | 68 | 1020.2 |
| 20260830192927 | 67 | 290 | 2.0 | 4.0 | 0.00 | 0.00 | 0.00 | 67 | 1020.2 |
| 20260830192533 | 67 | 302 | 2.0 | 6.0 | 0.00 | 0.00 | 0.00 | 68 | 1020.2 |
| 20260830192414 | 67 | 110 | 1.0 | 7.0 | 0.00 | 0.00 | 0.00 | 68 | 1020.2 |
| 20260830192018 | 66 | 133 | 1.0 | 9.0 | 0.00 | 0.00 | 0.00 | 69 | 1020.1 |
| 20260830191918 | 66 | 279 | 1.0 | 9.0 | 0.00 | 0.00 | 0.00 | 67 | 1020.1 |
| 20260830191522 | 67 | 279 | 3.0 | 9.0 | 0.00 | 0.00 | 0.00 | 64 | 1020.2 |
| 20260830191424 | 67 | 266 | 3.0 | 9.0 | 0.00 | 0.00 | 0.00 | 64 | 1020.2 |
| 20260830191026 | 68 | 300 | 1.0 | 5.0 | 0.00 | 0.00 | 0.00 | 64 | 1020.2 |
| 20260830190912 | 68 | 174 | 1.0 | 5.0 | 0.00 | 0.00 | 0.00 | 65 | 1020.1 |
| 20260830190515 | 68 | 283 | 1.0 | 5.0 | 0.00 | 0.00 | 0.00 | 66 | 1020.3 |
| 20260830190418 | 67 | 121 | 1.0 | 5.0 | 0.00 | 0.00 | 0.00 | 64 | 1020.3 |
| 20260830190026 | 68 | 347 | 2.0 | 5.0 | 0.00 | 0.00 | 0.00 | 64 | 1020.5 |
| 20260830185926 | 68 | 282 | 1.0 | 6.0 | 0.00 | 0.00 | 0.00 | 64 | 1020.5 |
| 20260830185530 | 69 | 263 | 1.0 | 6.0 | 0.00 | 0.00 | 0.00 | 61 | 1020.5 |
| 20260830185430 | 69 | 350 | 1.0 | 6.0 | 0.00 | 0.00 | 0.00 | 63 | 1020.5 |
| 20260830185031 | 70 | 184 | 1.0 | 4.0 | 0.00 | 0.00 | 0.00 | 61 | 1020.5 |
| 20260830184930 | 70 | 167 | 1.0 | 3.0 | 0.00 | 0.00 | 0.00 | 61 | 1020.6 |
| 20260830184532 | 71 | 297 | 1.0 | 3.0 | 0.00 | 0.00 | 0.00 | 60 | 1020.5 |
| 20260830184413 | 71 | 85 | 0.0 | 3.0 | 0.00 | 0.00 | 0.00 | 61 | 1020.5 |
| 20260830184018 | 70 | 148 | 0.0 | 2.0 | 0.00 | 0.00 | 0.00 | 58 | 1020.6 |
| 20260830183920 | 70 | 106 | 0.0 | 2.0 | 0.00 | 0.00 | 0.00 | 58 | 1020.6 |
| 20260830183526 | 70 | 323 | 0.0 | 2.0 | 0.00 | 0.00 | 0.00 | 58 | 1020.5 |
| 20260830183427 | 70 | 288 | 1.0 | 4.0 | 0.00 | 0.00 | 0.00 | 58 | 1020.5 |
| 20260830183031 | 70 | 82 | 1.0 | 4.0 | 0.00 | 0.00 | 0.00 | 59 | 1020.5 |
| 20260830182912 | 69 | 101 | 1.0 | 4.0 | 0.00 | 0.00 | 0.00 | 63 | 1020.5 |
| 20260830182518 | 69 | 43 | 1.0 | 3.0 | 0.00 | 0.00 | 0.00 | 60 | 1020.4 |
| 20260830182418 | 69 | 39 | 1.0 | 3.0 | 0.00 | 0.00 | 0.00 | 64 | 1020.5 |
| 20260830182023 | 69 | 316 | 1.0 | 4.0 | 0.00 | 0.00 | 0.00 | 64 | 1020.4 |
| 20260830181924 | 68 | 281 | 1.0 | 4.0 | 0.00 | 0.00 | 0.00 | 61 | 1020.4 |
| 20260830181527 | 68 | 101 | 1.0 | 4.0 | 0.00 | 0.00 | 0.00 | 62 | 1020.6 |
| 20260830181428 | 68 | 274 | 1.0 | 4.0 | 0.00 | 0.00 | 0.00 | 62 | 1020.6 |
| 20260830181033 | 68 | 285 | 1.0 | 4.0 | 0.00 | 0.00 | 0.00 | 60 | 1020.6 |
| 20260830180912 | 68 | 297 | 0.0 | 1.0 | 0.00 | 0.00 | 0.00 | 64 | 1020.6 |
| 20260830180518 | 67 | 210 | 0.0 | 3.0 | 0.00 | 0.00 | 0.00 | 63 | 1020.5 |
| 20260830180419 | 67 | 210 | 1.0 | 3.0 | 0.00 | 0.00 | 0.00 | 65 | 1020.5 |
| 20260830180028 | 67 | 91 | 0.0 | 3.0 | 0.00 | 0.00 | 0.00 | 66 | 1020.4 |
| 20260830175914 | 67 | 91 | 1.0 | 3.0 | 0.00 | 0.00 | 0.00 | 65 | 1020.4 |
| 20260830175515 | 67 | 304 | 0.0 | 2.0 | 0.00 | 0.00 | 0.00 | 66 | 1020.4 |
| 20260830175419 | 67 | 116 | 0.0 | 2.0 | 0.00 | 0.00 | 0.00 | 69 | 1020.4 |
| 20260830175021 | 66 | 132 | 0.0 | 1.0 | 0.00 | 0.00 | 0.00 | 70 | 1020.5 |
| 20260830174926 | 66 | 96 | 0.0 | 1.0 | 0.00 | 0.00 | 0.00 | 68 | 1020.4 |
| 20260830174527 | 66 | 253 | 1.0 | 3.0 | 0.00 | 0.00 | 0.00 | 69 | 1020.4 |
| 20260830174414 | 66 | 164 | 1.0 | 3.0 | 0.00 | 0.00 | 0.00 | 71 | 1020.5 |
| 20260830174014 | 65 | 183 | 0.0 | 3.0 | 0.00 | 0.00 | 0.00 | 70 | 1020.6 |
| 20260830173916 | 65 | 183 | 1.0 | 3.0 | 0.00 | 0.00 | 0.00 | 69 | 1020.5 |
| 20260830173522 | 64 | 11 | 0.0 | 4.0 | 0.00 | 0.00 | 0.00 | 76 | 1020.6 |
| 20260830173421 | 64 | 34 | 0.0 | 4.0 | 0.00 | 0.00 | 0.00 | 76 | 1020.7 |
| 20260830173025 | 64 | 299 | 1.0 | 4.0 | 0.00 | 0.00 | 0.00 | 76 | 1020.6 |
| 20260830172928 | 63 | 99 | 1.0 | 4.0 | 0.00 | 0.00 | 0.00 | 73 | 1020.6 |
| 20260830172532 | 63 | 86 | 1.0 | 2.0 | 0.00 | 0.00 | 0.00 | 76 | 1020.6 |
| 20260830172414 | 63 | 169 | 1.0 | 2.0 | 0.00 | 0.00 | 0.00 | 78 | 1020.7 |
| 20260830172018 | 62 | 86 | 1.0 | 3.0 | 0.00 | 0.00 | 0.00 | 76 | 1020.5 |
| 20260830171920 | 62 | 94 | 0.0 | 3.0 | 0.00 | 0.00 | 0.00 | 78 | 1020.5 |
| 20260830171525 | 62 | 304 | 1.0 | 3.0 | 0.00 | 0.00 | 0.00 | 79 | 1020.5 |
| 20260830171427 | 61 | 304 | 1.0 | 3.0 | 0.00 | 0.00 | 0.00 | 80 | 1020.5 |
| 20260830171033 | 61 | 124 | 0.0 | 2.0 | 0.00 | 0.00 | 0.00 | 82 | 1020.5 |
| 20260830170914 | 61 | 239 | 0.0 | 2.0 | 0.00 | 0.00 | 0.00 | 82 | 1020.5 |
| 20260830170520 | 60 | 7 | 0.0 | 2.0 | 0.00 | 0.00 | 0.00 | 84 | 1020.5 |
| 20260830170420 | 60 | 7 | 0.0 | 2.0 | 0.00 | 0.00 | 0.00 | 86 | 1020.4 |
| 20260830170014 | 59 | 55 | 0.0 | 2.0 | 0.00 | 0.00 | 0.00 | 89 | 1020.5 |
| 20260830165913 | 59 | 53 | 0.0 | 2.0 | 0.00 | 0.00 | 0.00 | 90 | 1020.5 |
| 20260830165520 | 58 | 179 | 0.0 | 1.0 | 0.00 | 0.00 | 0.00 | 91 | 1020.6 |
| 20260830165421 | 58 | 238 | 0.0 | 1.0 | 0.00 | 0.00 | 0.00 | 93 | 1020.7 |
| 20260830165023 | 57 | 238 | 0.0 | 1.0 | 0.00 | 0.00 | 0.00 | 94 | 1020.6 |
| 20260830164925 | 57 | 238 | 0.0 | 1.0 | 0.00 | 0.00 | 0.00 | 95 | 1020.6 |
| 20260830164528 | 57 | 238 | 0.0 | 4.0 | 0.00 | 0.00 | 0.00 | 96 | 1020.6 |
| 20260830164431 | 57 | 240 | 0.0 | 4.0 | 0.00 | 0.00 | 0.00 | 96 | 1020.6 |
| 20260830164017 | 56 | 258 | 1.0 | 4.0 | 0.00 | 0.00 | 0.00 | 96 | 1020.6 |
| 20260830163919 | 56 | 258 | 1.0 | 4.0 | 0.00 | 0.00 | 0.00 | 96 | 1020.6 |
| 20260830163526 | 55 | 117 | 0.0 | 1.0 | 0.00 | 0.00 | 0.00 | 97 | 1020.6 |
| 20260830163426 | 55 | 135 | 0.0 | 1.0 | 0.00 | 0.00 | 0.00 | 97 | 1020.6 |
| 20260830163026 | 54 | 126 | 0.0 | 1.0 | 0.00 | 0.00 | 0.00 | 97 | 1020.7 |
| 20260830162931 | 54 | 125 | 0.0 | 1.0 | 0.00 | 0.00 | 0.00 | 97 | 1020.6 |
| 20260830162532 | 54 | 253 | 0.0 | 1.0 | 0.00 | 0.00 | 0.00 | 97 | 1020.7 |
| 20260830162417 | 53 | 253 | 0.0 | 1.0 | 0.00 | 0.00 | 0.00 | 97 | 1020.7 |
| 20260830162016 | 53 | 253 | 0.0 | 1.0 | 0.00 | 0.00 | 0.00 | 97 | 1020.7 |
| 20260830161920 | 53 | 253 | 0.0 | 0.0 | 0.00 | 0.00 | 0.00 | 97 | 1020.7 |
| 20260830161520 | 52 | 253 | 0.0 | 0.0 | 0.00 | 0.00 | 0.00 | 97 | 1020.7 |
| 20260830161422 | 52 | 253 | 0.0 | 0.0 | 0.00 | 0.00 | 0.00 | 97 | 1020.7 |
| 20260830161028 | 52 | 253 | 0.0 | 0.0 | 0.00 | 0.00 | 0.00 | 97 | 1020.7 |
| 20260830160931 | 52 | 253 | 0.0 | 0.0 | 0.00 | 0.00 | 0.00 | 97 | 1020.7 |
| 20260830160516 | 52 | 253 | 0.0 | 0.0 | 0.00 | 0.00 | 0.00 | 97 | 1020.7 |
| 20260830160416 | 52 | 253 | 0.0 | 0.0 | 0.00 | 0.00 | 0.00 | 97 | 1020.7 |
| 20260830160028 | 51 | 253 | 0.0 | 1.0 | 0.00 | 0.00 | 0.00 | 97 | 1020.6 |
| 20260830155930 | 51 | 253 | 0.0 | 1.0 | 0.00 | 0.00 | 0.00 | 97 | 1020.6 |
| 20260830155514 | 51 | 253 | 0.0 | 1.0 | 0.00 | 0.00 | 0.00 | 97 | 1020.6 |
| 20260830155417 | 51 | 254 | 0.0 | 0.0 | 0.00 | 0.00 | 0.00 | 96 | 1020.7 |
| 20260830155024 | 51 | 193 | 0.0 | 0.0 | 0.00 | 0.00 | 0.00 | 97 | 1020.6 |
| 20260830154927 | 51 | 193 | 0.0 | 0.0 | 0.00 | 0.00 | 0.00 | 97 | 1020.6 |
| 20260830154514 | 51 | 193 | 0.0 | 0.0 | 0.00 | 0.00 | 0.00 | 96 | 1020.7 |
| 20260830154416 | 51 | 193 | 0.0 | 0.0 | 0.00 | 0.00 | 0.00 | 96 | 1020.6 |
| 20260830154021 | 51 | 193 | 0.0 | 0.0 | 0.00 | 0.00 | 0.00 | 96 | 1020.6 |
| 20260830153921 | 51 | 193 | 0.0 | 0.0 | 0.00 | 0.00 | 0.00 | 96 | 1020.6 |
| 20260830153527 | 50 | 193 | 0.0 | 0.0 | 0.00 | 0.00 | 0.00 | 96 | 1020.5 |
| 20260830153429 | 50 | 193 | 0.0 | 0.0 | 0.00 | 0.00 | 0.00 | 96 | 1020.6 |
| 20260830153014 | 50 | 193 | 0.0 | 0.0 | 0.00 | 0.00 | 0.00 | 97 | 1020.7 |
| 20260830152916 | 50 | 193 | 0.0 | 0.0 | 0.00 | 0.00 | 0.00 | 97 | 1020.7 |
| 20260830152521 | 50 | 193 | 0.0 | 0.0 | 0.00 | 0.00 | 0.00 | 97 | 1020.7 |
| 20260830152421 | 50 | 193 | 0.0 | 0.0 | 0.00 | 0.00 | 0.00 | 97 | 1020.7 |
| 20260830152028 | 50 | 193 | 0.0 | 0.0 | 0.00 | 0.00 | 0.00 | 96 | 1020.7 |
| 20260830151912 | 50 | 193 | 0.0 | 0.0 | 0.00 | 0.00 | 0.00 | 97 | 1020.7 |
| 20260830151518 | 50 | 193 | 0.0 | 0.0 | 0.00 | 0.00 | 0.00 | 96 | 1020.6 |
| 20260830151418 | 50 | 193 | 0.0 | 0.0 | 0.00 | 0.00 | 0.00 | 96 | 1020.6 |
| 20260830151024 | 49 | 193 | 0.0 | 0.0 | 0.00 | 0.00 | 0.00 | 96 | 1020.6 |
| 20260830150924 | 49 | 193 | 0.0 | 0.0 | 0.00 | 0.00 | 0.00 | 96 | 1020.7 |
| 20260830150526 | 49 | 193 | 0.0 | 0.0 | 0.00 | 0.00 | 0.00 | 96 | 1020.7 |
| 20260830150429 | 49 | 193 | 0.0 | 0.0 | 0.00 | 0.00 | 0.00 | 96 | 1020.7 |
| 20260830150020 | 49 | 193 | 0.0 | 0.0 | 0.00 | 0.01 | 0.00 | 96 | 1020.7 |
| 20260830145923 | 49 | 193 | 0.0 | 0.0 | 0.00 | 0.01 | 0.00 | 96 | 1020.6 |
| 20260830145523 | 49 | 193 | 0.0 | 0.0 | 0.00 | 0.01 | 0.00 | 96 | 1020.7 |
| 20260830145425 | 49 | 193 | 0.0 | 0.0 | 0.00 | 0.01 | 0.00 | 96 | 1020.8 |
| 20260830145029 | 49 | 193 | 0.0 | 0.0 | 0.00 | 0.01 | 0.00 | 96 | 1020.7 |
| 20260830144931 | 49 | 193 | 0.0 | 0.0 | 0.00 | 0.01 | 0.00 | 96 | 1020.8 |
| 20260830144517 | 49 | 193 | 0.0 | 0.0 | 0.00 | 0.01 | 0.00 | 96 | 1020.8 |
| 20260830144419 | 49 | 193 | 0.0 | 0.0 | 0.00 | 0.01 | 0.00 | 96 | 1020.8 |
| 20260830144025 | 48 | 193 | 0.0 | 0.0 | 0.00 | 0.01 | 0.00 | 96 | 1020.8 |
| 20260830143919 | 48 | 193 | 0.0 | 0.0 | 0.00 | 0.01 | 0.00 | 96 | 1020.8 |
| 20260830143526 | 48 | 193 | 0.0 | 0.0 | 0.00 | 0.01 | 0.00 | 96 | 1020.8 |
| 20260830143427 | 48 | 193 | 0.0 | 0.0 | 0.00 | 0.01 | 0.00 | 96 | 1020.7 |
| 20260830143031 | 48 | 193 | 0.0 | 0.0 | 0.00 | 0.01 | 0.00 | 96 | 1020.8 |
| 20260830142914 | 48 | 193 | 0.0 | 0.0 | 0.00 | 0.01 | 0.00 | 96 | 1020.7 |
| 20260830142420 | 48 | 193 | 0.0 | 0.0 | 0.00 | 0.01 | 0.00 | 96 | 1020.7 |
| 20260830142026 | 48 | 193 | 0.0 | 0.0 | 0.00 | 0.01 | 0.00 | 96 | 1020.7 |
| 20260830141926 | 48 | 193 | 0.0 | 0.0 | 0.00 | 0.01 | 0.00 | 96 | 1020.8 |
| 20260830141529 | 48 | 193 | 0.0 | 0.0 | 0.00 | 0.01 | 0.00 | 96 | 1020.8 |
| 20260830141429 | 48 | 193 | 0.0 | 0.0 | 0.00 | 0.01 | 0.00 | 96 | 1020.7 |
| 20260830141031 | 48 | 193 | 0.0 | 0.0 | 0.00 | 0.01 | 0.00 | 96 | 1020.8 |
| 20260830140931 | 47 | 193 | 0.0 | 0.0 | 0.00 | 0.01 | 0.00 | 96 | 1020.7 |
| 20260830140533 | 47 | 193 | 0.0 | 0.0 | 0.00 | 0.01 | 0.00 | 96 | 1020.7 |
| 20260830140413 | 47 | 193 | 0.0 | 0.0 | 0.00 | 0.01 | 0.00 | 96 | 1020.7 |
| 20260830140022 | 47 | 193 | 0.0 | 0.0 | 0.00 | 0.01 | 0.00 | 96 | 1020.8 |
| 20260830135929 | 47 | 193 | 0.0 | 0.0 | 0.00 | 0.01 | 0.00 | 96 | 1020.7 |
| 20260830135526 | 47 | 193 | 0.0 | 0.0 | 0.00 | 0.01 | 0.00 | 96 | 1020.8 |
| 20260830135432 | 47 | 193 | 0.0 | 0.0 | 0.00 | 0.01 | 0.00 | 96 | 1020.7 |
| 20260830135032 | 47 | 193 | 0.0 | 0.0 | 0.00 | 0.01 | 0.00 | 96 | 1020.8 |
| 20260830134917 | 47 | 193 | 0.0 | 0.0 | 0.00 | 0.01 | 0.00 | 96 | 1020.8 |
| 20260830134516 | 47 | 193 | 0.0 | 0.0 | 0.00 | 0.01 | 0.00 | 96 | 1020.8 |
| 20260830134418 | 47 | 193 | 0.0 | 0.0 | 0.00 | 0.01 | 0.00 | 96 | 1020.8 |
| 20260830134020 | 47 | 193 | 0.0 | 0.0 | 0.00 | 0.01 | 0.00 | 96 | 1020.8 |
| 20260830133922 | 47 | 193 | 0.0 | 0.0 | 0.00 | 0.01 | 0.00 | 96 | 1020.8 |
| 20260830133526 | 47 | 193 | 0.0 | 0.0 | 0.00 | 0.01 | 0.00 | 95 | 1020.8 |
| 20260830133426 | 47 | 193 | 0.0 | 0.0 | 0.00 | 0.01 | 0.00 | 95 | 1020.8 |
| 20260830133028 | 47 | 193 | 0.0 | 0.0 | 0.00 | 0.01 | 0.00 | 95 | 1020.8 |
| 20260830132929 | 47 | 193 | 0.0 | 0.0 | 0.00 | 0.01 | 0.00 | 95 | 1020.8 |
| 20260830132529 | 47 | 193 | 0.0 | 0.0 | 0.00 | 0.01 | 0.00 | 96 | 1020.8 |
| 20260830132430 | 47 | 193 | 0.0 | 0.0 | 0.00 | 0.01 | 0.00 | 96 | 1020.8 |
| 20260830132032 | 48 | 193 | 0.0 | 0.0 | 0.00 | 0.01 | 0.00 | 96 | 1020.7 |
| 20260830131913 | 48 | 193 | 0.0 | 0.0 | 0.00 | 0.01 | 0.00 | 96 | 1020.7 |
| 20260830131514 | 48 | 193 | 0.0 | 0.0 | 0.00 | 0.01 | 0.00 | 96 | 1020.7 |
| 20260830131414 | 48 | 193 | 0.0 | 0.0 | 0.00 | 0.01 | 0.00 | 96 | 1020.8 |
| 20260830131015 | 48 | 193 | 0.0 | 0.0 | 0.00 | 0.01 | 0.00 | 95 | 1020.8 |
| 20260830130918 | 48 | 193 | 0.0 | 0.0 | 0.00 | 0.01 | 0.00 | 95 | 1020.8 |
| 20260830130523 | 48 | 193 | 0.0 | 0.0 | 0.00 | 0.01 | 0.00 | 96 | 1020.8 |
| 20260830130423 | 48 | 193 | 0.0 | 0.0 | 0.00 | 0.01 | 0.00 | 96 | 1020.7 |
| 20260830130017 | 48 | 193 | 0.0 | 0.0 | 0.00 | 0.01 | 0.00 | 96 | 1020.7 |
| 20260830125920 | 48 | 193 | 0.0 | 0.0 | 0.00 | 0.01 | 0.00 | 96 | 1020.7 |
| 20260830125529 | 48 | 193 | 0.0 | 0.0 | 0.00 | 0.01 | 0.00 | 95 | 1020.7 |
| 20260830125413 | 48 | 193 | 0.0 | 0.0 | 0.00 | 0.01 | 0.00 | 96 | 1020.7 |
| 20260830125017 | 48 | 193 | 0.0 | 0.0 | 0.00 | 0.01 | 0.00 | 96 | 1020.6 |
| 20260830124923 | 48 | 193 | 0.0 | 0.0 | 0.00 | 0.01 | 0.00 | 96 | 1020.6 |
| 20260830124521 | 48 | 193 | 0.0 | 0.0 | 0.00 | 0.01 | 0.00 | 96 | 1020.6 |
| 20260830124425 | 48 | 193 | 0.0 | 0.0 | 0.00 | 0.01 | 0.00 | 96 | 1020.6 |
| 20260830124026 | 48 | 200 | 0.0 | 0.0 | 0.00 | 0.01 | 0.00 | 96 | 1020.6 |
| 20260830123929 | 48 | 207 | 0.0 | 0.0 | 0.00 | 0.01 | 0.00 | 96 | 1020.6 |
| 20260830123532 | 48 | 207 | 0.0 | 0.0 | 0.00 | 0.01 | 0.00 | 96 | 1020.6 |
| 20260830123412 | 48 | 207 | 0.0 | 0.0 | 0.00 | 0.01 | 0.00 | 96 | 1020.5 |
| 20260830123014 | 48 | 207 | 0.0 | 0.0 | 0.00 | 0.01 | 0.00 | 96 | 1020.6 |
| 20260830122916 | 48 | 207 | 0.0 | 0.0 | 0.00 | 0.01 | 0.00 | 96 | 1020.5 |
| 20260830122519 | 48 | 207 | 0.0 | 0.0 | 0.00 | 0.01 | 0.00 | 96 | 1020.5 |
| 20260830122420 | 48 | 207 | 0.0 | 0.0 | 0.00 | 0.01 | 0.00 | 96 | 1020.5 |
| 20260830122023 | 48 | 207 | 0.0 | 0.0 | 0.00 | 0.01 | 0.00 | 96 | 1020.4 |
| 20260830121924 | 47 | 207 | 0.0 | 0.0 | 0.00 | 0.01 | 0.00 | 96 | 1020.5 |
| 20260830121528 | 47 | 207 | 0.0 | 0.0 | 0.00 | 0.01 | 0.00 | 95 | 1020.5 |
| 20260830121430 | 47 | 207 | 0.0 | 0.0 | 0.00 | 0.01 | 0.00 | 95 | 1020.4 |
| 20260830121013 | 47 | 207 | 0.0 | 0.0 | 0.00 | 0.01 | 0.00 | 95 | 1020.4 |
| 20260830120916 | 47 | 207 | 0.0 | 0.0 | 0.00 | 0.01 | 0.00 | 95 | 1020.5 |
| 20260830120521 | 47 | 207 | 0.0 | 0.0 | 0.00 | 0.01 | 0.00 | 95 | 1020.5 |
| 20260830120419 | 47 | 207 | 0.0 | 0.0 | 0.00 | 0.01 | 0.00 | 95 | 1020.5 |
| 20260830120027 | 48 | 207 | 0.0 | 0.0 | 0.00 | 0.01 | 0.00 | 95 | 1020.5 |
| 20260830115927 | 48 | 207 | 0.0 | 0.0 | 0.00 | 0.01 | 0.00 | 95 | 1020.5 |
| 20260830115531 | 48 | 207 | 0.0 | 0.0 | 0.00 | 0.01 | 0.00 | 95 | 1020.5 |
| 20260830115412 | 48 | 207 | 0.0 | 0.0 | 0.00 | 0.01 | 0.00 | 95 | 1020.5 |
| 20260830115013 | 48 | 207 | 0.0 | 0.0 | 0.00 | 0.01 | 0.00 | 95 | 1020.5 |
| 20260830114914 | 48 | 207 | 0.0 | 0.0 | 0.00 | 0.01 | 0.00 | 95 | 1020.5 |
| 20260830114516 | 48 | 207 | 0.0 | 0.0 | 0.00 | 0.01 | 0.00 | 95 | 1020.4 |
| 20260830114417 | 49 | 207 | 0.0 | 0.0 | 0.00 | 0.01 | 0.00 | 95 | 1020.4 |
| 20260830114015 | 49 | 207 | 0.0 | 0.0 | 0.00 | 0.01 | 0.00 | 95 | 1020.4 |
| 20260830113922 | 49 | 207 | 0.0 | 0.0 | 0.00 | 0.01 | 0.00 | 95 | 1020.4 |
| 20260830113523 | 49 | 207 | 0.0 | 0.0 | 0.00 | 0.01 | 0.00 | 96 | 1020.4 |
| 20260830113429 | 49 | 207 | 0.0 | 0.0 | 0.00 | 0.01 | 0.00 | 96 | 1020.4 |
| 20260830113029 | 49 | 207 | 0.0 | 0.0 | 0.00 | 0.01 | 0.00 | 95 | 1020.4 |
| 20260830112913 | 49 | 207 | 0.0 | 0.0 | 0.00 | 0.01 | 0.00 | 95 | 1020.4 |
| 20260830112513 | 49 | 207 | 0.0 | 0.0 | 0.00 | 0.01 | 0.00 | 95 | 1020.4 |
| 20260830112415 | 49 | 207 | 0.0 | 0.0 | 0.00 | 0.01 | 0.00 | 95 | 1020.4 |
| 20260830112015 | 49 | 207 | 0.0 | 0.0 | 0.00 | 0.01 | 0.00 | 96 | 1020.4 |
| 20260830111915 | 49 | 207 | 0.0 | 0.0 | 0.00 | 0.01 | 0.00 | 96 | 1020.5 |
| 20260830111517 | 49 | 207 | 0.0 | 0.0 | 0.00 | 0.01 | 0.00 | 95 | 1020.4 |
| 20260830111415 | 49 | 207 | 0.0 | 0.0 | 0.00 | 0.01 | 0.00 | 95 | 1020.5 |
| 20260830111018 | 49 | 207 | 0.0 | 0.0 | 0.00 | 0.01 | 0.00 | 96 | 1020.5 |
| 20260830110920 | 49 | 207 | 0.0 | 0.0 | 0.00 | 0.01 | 0.00 | 96 | 1020.5 |
| 20260830110524 | 49 | 207 | 0.0 | 0.0 | 0.00 | 0.01 | 0.00 | 95 | 1020.5 |
| 20260830110424 | 49 | 207 | 0.0 | 0.0 | 0.00 | 0.01 | 0.00 | 95 | 1020.4 |
| 20260830110017 | 49 | 207 | 0.0 | 0.0 | 0.00 | 0.01 | 0.00 | 95 | 1020.5 |
| 20260830105915 | 49 | 207 | 0.0 | 0.0 | 0.00 | 0.01 | 0.00 | 95 | 1020.6 |
| 20260830105517 | 49 | 207 | 0.0 | 0.0 | 0.00 | 0.01 | 0.00 | 95 | 1020.6 |
| 20260830105419 | 49 | 207 | 0.0 | 0.0 | 0.00 | 0.01 | 0.00 | 95 | 1020.6 |
| 20260830105020 | 49 | 207 | 0.0 | 0.0 | 0.00 | 0.01 | 0.00 | 95 | 1020.6 |
| 20260830104923 | 49 | 207 | 0.0 | 0.0 | 0.00 | 0.01 | 0.00 | 95 | 1020.6 |
| 20260830104525 | 49 | 207 | 0.0 | 0.0 | 0.00 | 0.01 | 0.00 | 95 | 1020.6 |
| 20260830104429 | 49 | 207 | 0.0 | 0.0 | 0.00 | 0.01 | 0.00 | 95 | 1020.6 |
| 20260830104032 | 49 | 207 | 0.0 | 0.0 | 0.00 | 0.01 | 0.00 | 95 | 1020.7 |
| 20260830103913 | 49 | 207 | 0.0 | 0.0 | 0.00 | 0.01 | 0.00 | 95 | 1020.7 |
| 20260830103518 | 49 | 207 | 0.0 | 0.0 | 0.00 | 0.01 | 0.00 | 95 | 1020.7 |
| 20260830103418 | 49 | 207 | 0.0 | 0.0 | 0.00 | 0.01 | 0.00 | 95 | 1020.7 |
| 20260830103019 | 49 | 207 | 0.0 | 0.0 | 0.00 | 0.01 | 0.00 | 95 | 1020.8 |
| 20260830102919 | 49 | 207 | 0.0 | 0.0 | 0.00 | 0.01 | 0.00 | 95 | 1020.7 |
| 20260830102517 | 49 | 207 | 0.0 | 0.0 | 0.00 | 0.01 | 0.00 | 95 | 1020.8 |
| 20260830102421 | 49 | 207 | 0.0 | 0.0 | 0.00 | 0.01 | 0.00 | 95 | 1020.8 |
| 20260830102019 | 49 | 207 | 0.0 | 0.0 | 0.00 | 0.01 | 0.00 | 95 | 1020.8 |
| 20260830101523 | 49 | 207 | 0.0 | 0.0 | 0.00 | 0.01 | 0.00 | 95 | 1020.7 |
| 20260830101423 | 49 | 207 | 0.0 | 0.0 | 0.00 | 0.01 | 0.00 | 95 | 1020.7 |
| 20260830101024 | 50 | 207 | 0.0 | 0.0 | 0.00 | 0.01 | 0.00 | 95 | 1020.7 |
| 20260830100927 | 50 | 207 | 0.0 | 0.0 | 0.00 | 0.01 | 0.00 | 95 | 1020.8 |
| 20260830100531 | 49 | 207 | 0.0 | 0.0 | 0.00 | 0.01 | 0.00 | 95 | 1020.7 |
| 20260830100430 | 49 | 207 | 0.0 | 0.0 | 0.00 | 0.01 | 0.00 | 95 | 1020.7 |
| 20260830100021 | 49 | 207 | 0.0 | 0.0 | 0.00 | 0.01 | 0.00 | 95 | 1020.6 |
| 20260830095923 | 49 | 207 | 0.0 | 0.0 | 0.00 | 0.01 | 0.00 | 95 | 1020.7 |
| 20260830095524 | 49 | 207 | 0.0 | 0.0 | 0.00 | 0.01 | 0.00 | 95 | 1020.7 |
| 20260830095425 | 49 | 207 | 0.0 | 0.0 | 0.00 | 0.01 | 0.00 | 95 | 1020.7 |
| 20260830095028 | 49 | 207 | 0.0 | 0.0 | 0.00 | 0.01 | 0.00 | 95 | 1020.7 |
| 20260830094929 | 49 | 207 | 0.0 | 0.0 | 0.00 | 0.01 | 0.00 | 95 | 1020.7 |
| 20260830094532 | 49 | 207 | 0.0 | 0.0 | 0.00 | 0.01 | 0.00 | 95 | 1020.7 |
| 20260830094414 | 49 | 207 | 0.0 | 0.0 | 0.00 | 0.01 | 0.00 | 95 | 1020.8 |
| 20260830094017 | 49 | 207 | 0.0 | 0.0 | 0.00 | 0.01 | 0.00 | 95 | 1020.8 |
| 20260830093919 | 49 | 207 | 0.0 | 0.0 | 0.00 | 0.01 | 0.00 | 95 | 1020.8 |
| 20260830093524 | 49 | 207 | 0.0 | 0.0 | 0.00 | 0.01 | 0.00 | 95 | 1020.7 |
| 20260830093425 | 49 | 207 | 0.0 | 0.0 | 0.00 | 0.01 | 0.00 | 95 | 1020.7 |
| 20260830093027 | 49 | 207 | 0.0 | 0.0 | 0.00 | 0.01 | 0.00 | 95 | 1020.7 |
| 20260830092930 | 50 | 207 | 0.0 | 0.0 | 0.00 | 0.01 | 0.00 | 95 | 1020.7 |
| 20260830092532 | 50 | 207 | 0.0 | 0.0 | 0.00 | 0.01 | 0.00 | 95 | 1020.7 |
| 20260830092414 | 50 | 207 | 0.0 | 0.0 | 0.00 | 0.01 | 0.00 | 95 | 1020.7 |
| 20260830092017 | 50 | 207 | 0.0 | 0.0 | 0.00 | 0.01 | 0.00 | 95 | 1020.6 |
| 20260830091920 | 50 | 207 | 0.0 | 0.0 | 0.00 | 0.01 | 0.00 | 95 | 1020.6 |
| 20260830091520 | 50 | 207 | 0.0 | 0.0 | 0.00 | 0.01 | 0.00 | 95 | 1020.6 |
| 20260830091427 | 50 | 207 | 0.0 | 0.0 | 0.00 | 0.01 | 0.00 | 95 | 1020.6 |
| 20260830091027 | 50 | 207 | 0.0 | 0.0 | 0.00 | 0.01 | 0.00 | 95 | 1020.7 |
| 20260830090932 | 50 | 207 | 0.0 | 0.0 | 0.00 | 0.01 | 0.00 | 95 | 1020.7 |
| 20260830090531 | 50 | 207 | 0.0 | 0.0 | 0.00 | 0.01 | 0.00 | 95 | 1020.6 |
| 20260830090415 | 50 | 207 | 0.0 | 0.0 | 0.00 | 0.01 | 0.00 | 95 | 1020.6 |
| 20260830090023 | 50 | 207 | 0.0 | 0.0 | 0.00 | 0.01 | 0.00 | 95 | 1020.6 |
| 20260830085925 | 50 | 207 | 0.0 | 0.0 | 0.00 | 0.01 | 0.00 | 95 | 1020.5 |
| 20260830085528 | 50 | 207 | 0.0 | 0.0 | 0.00 | 0.01 | 0.00 | 95 | 1020.6 |
| 20260830085430 | 50 | 207 | 0.0 | 0.0 | 0.00 | 0.01 | 0.00 | 95 | 1020.5 |
| 20260830085032 | 50 | 207 | 0.0 | 0.0 | 0.00 | 0.01 | 0.00 | 94 | 1020.5 |
| 20260830084914 | 50 | 207 | 0.0 | 0.0 | 0.00 | 0.01 | 0.00 | 94 | 1020.5 |
| 20260830084516 | 50 | 207 | 0.0 | 0.0 | 0.00 | 0.01 | 0.00 | 94 | 1020.6 |
| 20260830084418 | 50 | 207 | 0.0 | 0.0 | 0.00 | 0.01 | 0.00 | 94 | 1020.6 |
| 20260830084021 | 50 | 207 | 0.0 | 0.0 | 0.00 | 0.01 | 0.00 | 94 | 1020.6 |
| 20260830083923 | 50 | 207 | 0.0 | 0.0 | 0.00 | 0.01 | 0.00 | 94 | 1020.6 |
| 20260830083525 | 50 | 207 | 0.0 | 0.0 | 0.00 | 0.01 | 0.00 | 94 | 1020.6 |
| 20260830083423 | 50 | 207 | 0.0 | 0.0 | 0.00 | 0.01 | 0.00 | 94 | 1020.6 |
| 20260830083025 | 50 | 207 | 0.0 | 0.0 | 0.00 | 0.01 | 0.00 | 95 | 1020.7 |
| 20260830082929 | 50 | 207 | 0.0 | 0.0 | 0.00 | 0.01 | 0.00 | 95 | 1020.7 |
| 20260830082531 | 50 | 207 | 0.0 | 0.0 | 0.00 | 0.01 | 0.00 | 94 | 1020.7 |
| 20260830082412 | 50 | 207 | 0.0 | 0.0 | 0.00 | 0.01 | 0.00 | 94 | 1020.8 |
| 20260830082014 | 50 | 207 | 0.0 | 0.0 | 0.00 | 0.01 | 0.00 | 94 | 1020.8 |
| 20260830081915 | 51 | 207 | 0.0 | 0.0 | 0.00 | 0.01 | 0.00 | 95 | 1020.8 |
| 20260830081515 | 50 | 207 | 0.0 | 0.0 | 0.00 | 0.01 | 0.00 | 94 | 1020.8 |
| 20260830081417 | 51 | 207 | 0.0 | 0.0 | 0.00 | 0.01 | 0.00 | 94 | 1020.8 |
| 20260830081019 | 51 | 207 | 0.0 | 0.0 | 0.00 | 0.01 | 0.00 | 94 | 1020.8 |
| 20260830080921 | 51 | 207 | 0.0 | 0.0 | 0.00 | 0.01 | 0.00 | 95 | 1020.7 |
| 20260830080526 | 51 | 207 | 0.0 | 0.0 | 0.00 | 0.01 | 0.00 | 94 | 1020.6 |
| 20260830080428 | 51 | 207 | 0.0 | 0.0 | 0.00 | 0.01 | 0.00 | 94 | 1020.7 |
| 20260830080019 | 51 | 207 | 0.0 | 0.0 | 0.00 | 0.01 | 0.00 | 94 | 1020.7 |
| 20260830075925 | 51 | 207 | 0.0 | 0.0 | 0.00 | 0.01 | 0.00 | 94 | 1020.7 |
| 20260830075521 | 51 | 207 | 0.0 | 0.0 | 0.00 | 0.01 | 0.00 | 94 | 1020.7 |
| 20260830075427 | 51 | 207 | 0.0 | 0.0 | 0.00 | 0.01 | 0.00 | 94 | 1020.6 |
| 20260830075023 | 51 | 207 | 0.0 | 0.0 | 0.00 | 0.01 | 0.00 | 94 | 1020.8 |
| 20260830074925 | 51 | 207 | 0.0 | 0.0 | 0.00 | 0.01 | 0.00 | 94 | 1020.7 |
| 20260830074527 | 51 | 207 | 0.0 | 0.0 | 0.00 | 0.01 | 0.00 | 94 | 1020.8 |
| 20260830074429 | 51 | 207 | 0.0 | 0.0 | 0.00 | 0.01 | 0.00 | 94 | 1020.8 |
| 20260830074013 | 51 | 207 | 0.0 | 0.0 | 0.00 | 0.01 | 0.00 | 94 | 1020.8 |
| 20260830073917 | 51 | 207 | 0.0 | 0.0 | 0.00 | 0.01 | 0.00 | 94 | 1020.8 |
| 20260830073521 | 51 | 207 | 0.0 | 0.0 | 0.00 | 0.01 | 0.00 | 94 | 1020.8 |
| 20260830073421 | 51 | 207 | 0.0 | 0.0 | 0.00 | 0.01 | 0.00 | 94 | 1020.8 |
| 20260830073023 | 51 | 207 | 0.0 | 0.0 | 0.00 | 0.01 | 0.00 | 94 | 1020.8 |
| 20260830072926 | 51 | 207 | 0.0 | 0.0 | 0.00 | 0.01 | 0.00 | 94 | 1020.9 |
| 20260830072526 | 51 | 207 | 0.0 | 0.0 | 0.00 | 0.01 | 0.00 | 94 | 1020.8 |
| 20260830072428 | 51 | 207 | 0.0 | 0.0 | 0.00 | 0.01 | 0.00 | 94 | 1020.9 |
| 20260830072028 | 51 | 207 | 0.0 | 0.0 | 0.00 | 0.01 | 0.00 | 94 | 1020.9 |
| 20260830071929 | 51 | 207 | 0.0 | 0.0 | 0.00 | 0.01 | 0.00 | 94 | 1020.9 |
| 20260830071528 | 51 | 207 | 0.0 | 0.0 | 0.00 | 0.01 | 0.00 | 94 | 1020.9 |
| 20260830071430 | 51 | 207 | 0.0 | 0.0 | 0.00 | 0.01 | 0.00 | 94 | 1021.0 |
| 20260830071031 | 51 | 207 | 0.0 | 0.0 | 0.00 | 0.01 | 0.00 | 94 | 1020.9 |
| 20260830070914 | 51 | 207 | 0.0 | 0.0 | 0.00 | 0.01 | 0.00 | 94 | 1020.9 |
| 20260830070519 | 51 | 207 | 0.0 | 0.0 | 0.00 | 0.01 | 0.00 | 94 | 1021.0 |
| 20260830070421 | 51 | 207 | 0.0 | 0.0 | 0.00 | 0.01 | 0.00 | 94 | 1021.0 |
| 20260830070034 | 51 | 207 | 0.0 | 0.0 | 0.00 | 0.01 | 0.01 | 94 | 1021.0 |
| 20260830065928 | 51 | 207 | 0.0 | 0.0 | 0.00 | 0.01 | 0.01 | 94 | 1021.0 |
| 20260830065526 | 51 | 207 | 0.0 | 0.0 | 0.00 | 0.01 | 0.01 | 94 | 1020.9 |
| 20260830065412 | 51 | 207 | 0.0 | 0.0 | 0.00 | 0.01 | 0.01 | 93 | 1020.9 |
| 20260830065013 | 51 | 207 | 0.0 | 0.0 | 0.00 | 0.01 | 0.01 | 93 | 1021.0 |
| 20260830064918 | 52 | 207 | 0.0 | 0.0 | 0.00 | 0.01 | 0.01 | 93 | 1021.0 |
| 20260830064516 | 52 | 207 | 0.0 | 0.0 | 0.00 | 0.01 | 0.01 | 93 | 1021.1 |
| 20260830064421 | 52 | 207 | 0.0 | 0.0 | 0.00 | 0.01 | 0.01 | 93 | 1021.1 |
| 20260830063921 | 52 | 207 | 0.0 | 0.0 | 0.00 | 0.01 | 0.01 | 93 | 1021.0 |
| 20260830063526 | 52 | 207 | 0.0 | 0.0 | 0.00 | 0.01 | 0.01 | 93 | 1021.0 |
| 20260830063427 | 52 | 207 | 0.0 | 0.0 | 0.00 | 0.01 | 0.01 | 93 | 1021.0 |
| 20260830063029 | 52 | 207 | 0.0 | 0.0 | 0.00 | 0.01 | 0.01 | 93 | 1020.8 |
| 20260830062932 | 52 | 207 | 0.0 | 0.0 | 0.00 | 0.01 | 0.01 | 93 | 1020.9 |
| 20260830062532 | 52 | 207 | 0.0 | 0.0 | 0.00 | 0.01 | 0.01 | 93 | 1020.8 |
| 20260830062412 | 53 | 207 | 0.0 | 0.0 | 0.00 | 0.01 | 0.01 | 93 | 1020.8 |